Location: Finney State Fishing Lake and Wildlife Area
(38.1834°N, 100.3310°W)
Time: 03:31:24
(UTC+00:00)

X-37B - Pass Details

Date: 13 December 2023
Orbit: 277 x 277 km, 45.0° (Epoch: 01 November)

Event Time Altitude Azimuth Distance (km) Brightness Sun altitude
Rises 00:39:32 0° 284° (WNW) 1,913 5.1 -14.9°
Reaches altitude 10° 00:41:50 10° 261° (W) 1,097 4.2 -15.3°
Maximum altitude 00:43:31 17° 218° (SW) 815 3.0 -15.6°
Drops below altitude 10° 00:45:11 10° 174° (S) 1,092 3.0 -15.9°
Enters shadow 00:46:21 - 159° (SSE) 1,479 3.5 -16.1°
